Location: Bijele Vode
(45.2833°N, 16.2000°E)
Time: 06:41:10
(UTC+00:00)

Nauka - Pass Details

Date: 28 September 2021
Orbit: 417 x 423 km, 51.6° (Epoch: 16 October)

Event Time Altitude Azimuth Distance (km) Brightness Sun altitude
Rises 17:23:21 0° 291° (WNW) 2,364 ? -8.3°
Reaches altitude 10° 17:25:39 10° 304° (NW) 1,500 ? -8.7°
Maximum altitude 17:28:35 27° 4° (N) 846 ? -9.2°
Enters shadow 17:31:27 10° 64° (ENE) 1,479 ? -9.7°
